Погода Ивано-Франковск

Погода Ивано-Франковск : погода сейчас, прогноз погоды и архив. Всё, что Вы хотите узнать о погоде Ивано-Франковск!

Поиск расширенной информации на нашем сайте:

Другие новости

Новости СМИ2

Главная страница сайта

Новости сайта

03.07.2017

Напоминаем, что на нашем специализированном сайте Метеоцентр.Азия вы можете получить высокодетализированные автоматические прогнозы погоды по пунктам России, СНГ и мира в авиационном формате (включающие направление и скорость ветра, видимость, явления погоды, количество и форму облачности, нижнюю и верхнюю границу облачности).

Рекомендуем: Качественный синускан в наличии stimul20.ru.

Погода Ивано-Франковск - сегодня

Время (UTC), дата Ветер
(°,м/с) 
Видим.   Явления Облачность Т
(°С)
Тd
(°С)
f(%) Тe
(°С)
Pmin
(гПа)
dP
(гПа)
Po
(мм)
O2
(г/м3)
Тmin Tmax R s Состояние
почвы
21 16.06.18 270 (З) 50000 м    8/6 1200 м средняя 
[Sc|Ac trans]
+16.6 +15.4 93 +27  1015.3  0.9  737  277           
00 17.06.18 300 (СЗ) 20000 м    8/5 1200 м средняя 
[Sc|Ac trans]
+15.7 +15.2 97 +26  1014.9  -0.5  737  277           
03 17.06.18 тихо ()   10 км    9/8 1000 м средняя 
[Sc|Ac trans]
+15.6 +13.8 89 +23  1014.6  -0.3  736  278           
09 17.06.18 340 (С) 10 км  слаб. ливневой дождь  10/10 600 м кучево-дожд. 
[Cb cap]
+18.5 +16.7 89 +31  1015  0.5  737  274           
12 17.06.18 320 (СЗ) 3400 м  слаб. ливневой дождь  10/10 400 м кучево-дожд. 
[Cb cap]
+16.3 +16.1 99 +28  1015  -0.2  737  277         
15 17.06.18 290 (З) 10 км  слаб. ливневой дождь  10/10 500 м кучево-дожд. 
[Cb cap]
+15.3 +14.8 97 +25  1013.9  -1.2  736  278           
21 17.06.18 320 (СЗ) 10 км  слаб. ливневой дождь  10/10 270 м кучево-дожд. 
[Cb cap]
+15.5 +15.3 99 +27  1014.2  0.4  736  277           
00 18.06.18 320 (СЗ) 10 км  {ливн. осадки}  10/10 360 м кучево-дожд. 
[Cb cap]
+15.5 +15.2 98 +27  1014  -0.2  736  277         
03 18.06.18 тихо ()   6000 м  дымка  10/10 400 м 
[Sc]
+15.3 +14.8 97 +24  1013.7  -0.3  736  278           
06 18.06.18 040 (СВ) 10 км  слаб. ливневой дождь  10/10 450 м кучево-дожд. 
[Cb cap]
+16.7 +16.2 97 +29  1014.2  0.6  736  276  +15.1       
09 18.06.18 120 (ЮВ) 10 км  в посл. час ливневой дождь  10/10 400 м кучево-дожд. 
[Cb calv]
+20.4 +19.3 93 +38  1014.6  0.9  737  272           
12 18.06.18 130 (ЮВ) 10 км  {ливн. осадки}  9/9 700 м кучево-дожд. 
[Cb calv]
+24.6 +17.6 65 +39  1013.9  -0.3  737  268         
15 18.06.18 120 (ЮВ) 50000 м  {гроза, ливн. осадки}  8/8 900 м кучево-дожд. 
[Cb cap]
+22.8 +16.3 67 +34  1014.2  0.1  737  270           
18 18.06.18 260 (З) 50000 м  гроза без осадков{ливн. осадки}  8/8 700 м кучево-дожд. 
[Cb cap]
+21.4 +18.7 85 +38  1015.6  1.2  738  271    +24.8     
00 19.06.18 230 (ЮЗ) 10 км  {гроза}  3/0 верхняя 
[Ci fib]
+15.5 +15 97 +26  1017.9  0.4  739  279           
06 19.06.18 тихо ()   20000 м    4/0 верхняя 
[Cs]
+21.1 +18.2 84 +36  1018.5  0.7  740  272  +13.9         
09 19.06.18 010 (С) 10 км    8/4 600 м верхняя 
[Cu med, cong|Cs]
+23.7 +19 75 +41  1018.7  0.5  740  270           
12 19.06.18 020 (С) 20000 м    4/4 1000 м 
[Cu med, cong]
+27.2 +16.1 51 +38  1017.6  -0.8  740  268           
15 19.06.18 270 (З) 20000 м    6/4 1000 м средняя 
[Cu med, cong|Ac trans]
+26.8 +17.3 56 +40  1017.1  -0.5  739  267           
18 19.06.18 240 (ЮЗ) 20000 м    8/4 1200 м средняя, верхняя 
[Sc|Ac trans|Cs]
+22.9 +19.3 80 +40  1018.3  0.8  740  270    +28.2       
21 19.06.18 270 (З) 20000 м    4/0 верхняя 
[Ci fib]
+19.9 +18.1 89 +36  1019.8  1.1  741  274           
00 20.06.18 240 (ЮЗ) 20000 м    3/0 верхняя 
[Ci fib]
+18.8 +18.2 96 +35  1020.6  0.7  741  275           
03 20.06.18 310 (СЗ) 20000 м    8/5 1200 м средняя 
[Sc|Ac trans]
+18.7 +17.6 93 +34  1021.4  0.7  742  276           
06 20.06.18 290 (З) 30000 м    8/3 1500 м средняя 
[Sc|Ac trans]
+20.9 +17 78 +34  1022.3  1.1  742  274  +17.4         
09 20.06.18 350 (С) 30000 м    3/3 1500 м 
[Cu hum]
+25.3 +14.9 53 +34  1021.7  -0.1  742  271           
Время (UTC), дата Ветер
(°,м/с) 
Видим.   Явления Облачность Т
(°С)
Тd
(°С)
f(%) Тe
(°С)
Pmin
(гПа)
dP
(гПа)
Po
(мм)
O2
(г/м3)
Тmin Tmax R s Состояние
почвы

Для получения пояснительной информации подведите курсор к названию столбца.

ПОГОДА Ивано-Франковск - архив

Всё, что Вы хотите узнать о погоде Ивано-Франковск - удобно и подробно!

Выберите нужную дату (начиная с 1 января 2015* года) и нажмите кнопку "Найти".
Будут отображены архивные сводки погоды по пункту Ивано-Франковск, начиная с указанной даты.


Отображать данные в формате CSV (для использования в таблицах Excel)


Внимание! Наш архив погоды предназначен исключительно для личного некоммерческого использования в познавательных целях. Если Вам необходимы официальные справки о состоянии погоды (для производственных, юридических, коммерческих и т.п. целей), обращайтесь в органы Росгидромета.

*Примечание: данная дата относится к архиву по метеостанциям СССР (Россия, СНГ, Балтия).
Архив по метеостанциям Зарубежной Европы и Азии (кроме Китая) хранится 10 дней, по другим регионам земного шара (Китай, Африка, Америка, Австралия, Океания) - 1 день.

Ивано-Франковск - район местоположения метеостанции


Название, широта, долгота, высота метеостанции:
Ивано-Франковск 49°ш. 24.4°д. 280 м над ур. моря [Украина]

Дополнительная информация

В oтличие oт бoльшинства пoгoдных сайтoв мы публикуем пoдрoбную метеoинфoрмацию в детальнoм прoфессиoнальнoм фoрмате.

Характеристики температуры и влажнoсти вoздуха измеряются на высoте 2 м в тени вдали oт зданий и деревьев.
Скoрoсть ветра измеряется на высoте 10 м (на урoвне рoста челoвека скoрoсть ветра ниже в 1.5-2 раза). Если метеoстанция нахoдится в гoрoде или в лесу, тo скoрoсть ветра занижена на 2-4 м/с пo сравнению с oткрытым местoм. Скoрoсть ветра над акватoриями крупных рек и oзёр, а также на вершинах хoлмoв на 2-5 м/с выше, чем в oбычных услoвиях.
Атмoсфернoе давление в разных тoчках местнoсти мoжет значительнo oтличаться oт давления на метеoстанции, в зависимoсти oт услoвий рельефа (при пoдъёме на 10 м давление пoнижается примернo на 1 мм рт.ст.).